OSCAR 7 (AO-7)

Last updated on Fri Apr 18 2025 00:03:00 GMT+0000 (Coordinated Universal Time)

1 07530U 74089B 25107.59199192 -.00000049 00000+0 -16982-4 0 9997 2 07530 101.9952 111.2894 0011973 221.8616 253.9330 12.53688281307185
UTC large
Height (km)
Speed (km/s)
/
Latitude / Longitude
Inclination (degrees)
Orbital Period (minutes)
Azimuth
Elevation
Range (km)
Doppler Factor

Next 0 passes for location: London (51.5072 / 0.1276)

Sorry there are no passes over London.